Weather History for Brno, Czech Republic

Change the Weather History Date:

Monday, July 8, 2013

  Actual Average Record
Temperature  
Mean Temperature 68 °F -  
Max Temperature 79 °F 76 °F - ()
Min Temperature 58 °F 55 °F - ()
Cooling Degree Days 4    
Growing Degree Days 18 (Base 50)    
Moisture  
Dew Point 53 °F    
Average Humidity 54    
Maximum Humidity 77    
Minimum Humidity 31    
Precipitation  
Precipitation 0.00 in 0.08 in - ()
Sea Level Pressure  
Sea Level Pressure 30.33 in    
Wind  
Wind Speed 8 mph ()    
Max Wind Speed 13 mph    
Max Gust Speed -    
Visibility 7.6 miles    
Events      
T = Trace of Precipitation, MM = Missing Value Source: Averaged Metar Reports

Daily Weather History Graph

Daily Weather History Graph

Search for Another Location

Airport:

Trip Planner

Search our weather history database for the weather conditions in past years. The results will help you decide how hot, cold, wet, or windy it might be!

Date:

Astronomy

Jul. 08, 2013 Rise Set
Actual Time 4:57 AM CEST 8:58 PM CEST
Civil Twilight 4:15 AM CEST 9:40 PM CEST
Nautical Twilight 3:17 AM CEST 10:38 PM CEST
Astronomical Twilight 1:30 AM CEST 12:21 AM CEST
Moon 5:18 AM CEST (7/8) 8:39 PM CEST (7/8)
Length of Visible Light 17h 24m
Length of Day
16h 00m
New Moon, 0% of the Moon is Illuminated
Jul 8
New Moon
Jul 16
First Quarter
Jul 22
Full
Jul 29
Last Quarter
Aug 6
New

Hourly Weather History & Observations

Time (CEST) Temp. Dew Point Humidity Pressure Visibility Wind Dir Wind Speed Gust Speed Precip Events Conditions
12:00 AM 66.2 °F 51.8 °F 60% 30.36 in - NNE 9.2 mph - N/A   Clear
12:30 AM 66.2 °F 51.8 °F 60% 30.36 in - North 6.9 mph - N/A   Clear
1:00 AM 66.2 °F 51.8 °F 60% 30.36 in - North 6.9 mph - N/A   Clear
1:30 AM 64.4 °F 51.8 °F 64% 30.36 in - North 5.8 mph - N/A   Clear
2:00 AM 64 °F 51 °F 52% 30.35 in 25 mi NNE 4.5 mph - -  
2:00 AM 64.4 °F 51.8 °F 64% 30.36 in - NNE 4.6 mph - N/A   Clear
2:30 AM 62.6 °F 51.8 °F 68% 30.33 in - NNE 8.1 mph - N/A   Clear
3:00 AM 60.8 °F 51.8 °F 72% 30.33 in - North 5.8 mph - N/A   Clear
3:30 AM 60.8 °F 51.8 °F 72% 30.33 in - NW 4.6 mph - N/A   Clear
4:00 AM 59.0 °F 51.8 °F 77% 30.33 in - NNW 3.5 mph - N/A   Clear
4:30 AM 60.8 °F 51.8 °F 72% 30.33 in - North 8.1 mph - N/A   Clear
5:00 AM 60.8 °F 51.8 °F 72% 30.33 in - North 8.1 mph - N/A   Clear
5:30 AM 60.8 °F 51.8 °F 72% 30.33 in - North 8.1 mph - N/A   Clear
6:00 AM 60.8 °F 51.8 °F 72% 30.36 in - NNE 5.8 mph - N/A   Clear
6:30 AM 62.6 °F 51.8 °F 68% 30.36 in - North 5.8 mph - N/A   Clear
7:00 AM 64.4 °F 53.6 °F 68% 30.36 in - North 4.6 mph - N/A   Clear
7:30 AM 66.2 °F 53.6 °F 64% 30.36 in - North 6.9 mph - N/A   Clear
8:00 AM 67 °F 53 °F 51% 30.35 in 19 mi NNW 8.9 mph - -   Clear
8:00 AM 66.2 °F 53.6 °F 64% 30.36 in - NNW 8.1 mph - N/A   Clear
8:30 AM 68.0 °F 53.6 °F 60% 30.36 in - NNW 8.1 mph - N/A   Clear
9:00 AM 69.8 °F 53.6 °F 56% 30.36 in 6.2 mi NNW 6.9 mph - N/A   Partly Cloudy
9:30 AM 71.6 °F 51.8 °F 50% 30.36 in 6.2 mi NE 12.7 mph - N/A   Partly Cloudy
10:00 AM 71.6 °F 53.6 °F 53% 30.36 in 6.2 mi NE 11.5 mph - N/A   Partly Cloudy
10:30 AM 73.4 °F 51.8 °F 47% 30.36 in 6.2 mi NNE 12.7 mph - N/A   Partly Cloudy
11:00 AM 73.4 °F 51.8 °F 47% 30.36 in 6.2 mi NNE 12.7 mph - N/A   Partly Cloudy
11:30 AM 75.2 °F 51.8 °F 44% 30.36 in 6.2 mi NNE 11.5 mph - N/A   Partly Cloudy
12:00 PM 75.2 °F 53.6 °F 47% 30.36 in 6.2 mi NNE 12.7 mph - N/A   Partly Cloudy
12:30 PM 75.2 °F 51.8 °F 44% 30.36 in 6.2 mi NNE 11.5 mph - N/A   Partly Cloudy
1:00 PM 77.0 °F 51.8 °F 41% 30.33 in - NE 12.7 mph - N/A   Clear
1:30 PM 77.0 °F 53.6 °F 44% 30.33 in - NE 11.5 mph - N/A   Clear
2:00 PM 77 °F 52 °F 31% 30.30 in 25 mi NE 13.4 mph - -   Scattered Clouds
2:00 PM 77.0 °F 51.8 °F 41% 30.33 in - NE 12.7 mph - N/A   Clear
2:30 PM 77.0 °F 53.6 °F 44% 30.33 in - NNE 11.5 mph - N/A   Clear
3:00 PM 78.8 °F 51.8 °F 39% 30.33 in - NE 11.5 mph - N/A   Clear
3:30 PM 78.8 °F 53.6 °F 42% 30.30 in - NNE 12.7 mph - N/A   Clear
4:00 PM 78.8 °F 53.6 °F 42% 30.30 in - NE 12.7 mph - N/A   Clear
4:30 PM 78.8 °F 53.6 °F 42% 30.30 in - NE 10.4 mph - N/A   Clear
5:00 PM 78.8 °F 53.6 °F 42% 30.30 in - NE 11.5 mph - N/A   Clear
5:30 PM 77.0 °F 51.8 °F 41% 30.30 in - NNE 10.4 mph - N/A   Clear
6:00 PM 77.0 °F 53.6 °F 44% 30.30 in - NNE 11.5 mph - N/A   Clear
6:30 PM 77.0 °F 53.6 °F 44% 30.30 in - NNE 11.5 mph - N/A   Clear
7:00 PM 77.0 °F 53.6 °F 44% 30.30 in - NNE 10.4 mph - N/A   Clear
7:30 PM 75.2 °F 53.6 °F 47% 30.27 in - NE 10.4 mph - N/A   Clear
8:00 PM 74 °F 53 °F 37% 30.27 in 25 mi NNE 8.9 mph - -   Scattered Clouds
8:00 PM 73.4 °F 53.6 °F 50% 30.27 in - NNE 8.1 mph - N/A   Clear
8:30 PM 71.6 °F 53.6 °F 53% 30.30 in - NNE 6.9 mph - N/A   Clear
9:00 PM 71.6 °F 53.6 °F 53% 30.30 in - North 8.1 mph - N/A   Clear
9:30 PM 69.8 °F 53.6 °F 56% 30.30 in - North 8.1 mph - N/A   Clear
10:00 PM 69.8 °F 53.6 °F 56% 30.30 in - North 8.1 mph - N/A   Clear
10:30 PM 68.0 °F 53.6 °F 60% 30.30 in - North 8.1 mph - N/A   Clear
11:00 PM 68.0 °F 53.6 °F 60% 30.30 in - North 6.9 mph - N/A   Clear
11:30 PM 68.0 °F 53.6 °F 60% 30.30 in - North 6.9 mph - N/A   Clear